Regional Weather Roundup
Issued by NWS New Orleans/Baton Rouge, LA

Home | Current Version | Previous Version | Graphics & Text | Print | Product List | Glossary On
Versions: 1 2 3 4 5 6 7 8 9 10 11 12 13 14 15 16 17 18 19 20 21 22 23 24 25 26 27 28 29 30 31 32 33 34 35 36 37 38 39 40 41 42 43 44 45 46 47 48 49 50
064
ASUS44 KLIX 270810
RWRLIX
NEW ORLEANS REGIONAL WEATHER ROUNDUP
NATIONAL WEATHER SERVICE NEW ORLEANS LA
200 AM CST THU NOV 27 2014

NOTE: "FAIR" INDICATES FEW OR NO CLOUDS BELOW 12,000 FEET WITH NO
      SIGNIFICANT WEATHER AND/OR OBSTRUCTIONS TO VISIBILITY.
      SKY/WX - SKY CONDITION AND SIGNIFICANT WEATHER.
      TMP - AIR TEMPERATURE.     DP    - DEWPOINT TEMPERATURE.
      RH  - RELATIVE HUMIDITY.   PRES  - PRESSURE.
      HI  - HEAT INDEX.          WCI   - WIND CHILL INDEX.

*  THESE STATIONS ARE NOT NWS OR FAA STATIONS AND ARE NOT UNDER
   NWS QUALITY CONTROL.

LAZ038-040-048-061>063-065>067-069-270900-
SOUTHEAST LOUISIANA

CITY           SKY/WX    TMP DP  RH WIND       PRES   REMARKS
N.O. AUDUBON     N/A     55  50  82 MISG        N/A
N.O. INTL ARPT CLEAR     55  47  74 NW10      30.30R
N.O. LAKEFRONT CLEAR     57  51  80 W15       30.30R
N.O. DOWNTOWN*   N/A     55  45  67 NW5       30.31R
SLIDELL        CLEAR     53  46  77 CALM      30.29R
BATON ROUGE    CLEAR     46  42  86 W5        30.31R
BOOTHVILLE     CLEAR     59  52  77 W12       30.28F
BELLE CHASSE   CLEAR     50  46  86 CALM      30.30R
BOGALUSA*        N/A     47  41  77 CALM      30.30R
NEW ROADS*       N/A     48  42  77 W5        30.32R
GONZALES*        N/A     52  49  89 NW5       30.32R
HAMMOND*       CLEAR     48  41  76 CALM      30.32R
HOUMA*         CLEAR     53  50  92 W5        30.30R
PORT FOURCHON* SUNNY     59  55  88 W12       30.33S

$$

MSZ070-080>082-270900-
SOUTHERN MISSISSIPPI

CITY           SKY/WX    TMP DP  RH WIND       PRES   REMARKS
MCCOMB         CLEAR     46  36  68 N9        30.29R
GULFPORT       CLEAR     51  45  79 W6        30.28R
BILOXI         CLEAR     52  46  80 VRB2      30.28R
PASCAGOULA     CLEAR     52  45  77 W5        30.28R

$$

COASTAL OBSERVATIONS
LAKE AND NEARSHORE STATIONS

STATION/POSITION TIME  TEMP    WIND        PRES    WAVE
                       AIR SEA DIR/SP/G            HT/PER
                 (UTC) (F)     (DEG/KT/KT) (MB)    (FT/S)
PASCAGOULA       0800   56     290/  9/ 13 1024.4
WAVELAND YACHT   0800   53     270/  7/ 10 1024.6
GRAND ISLE       0800   60 60  290/ 15/ 17 1025.8
SOUTHWEST PASS   0800   64                 1026.0
NEW CANAL        0800   57 54  270/  8/ 11 1026.4
SHELL BEACH      0800   57 52  280/ 12/ 14 1025.5

OFFSHORE STATIONS

STATION/POSITION TIME  TEMP    WIND        PRES    WAVE
                       AIR SEA DIR/SP/G            HT/PER
                 (UTC) (F)     (DEG/KT/KT) (MB)    (FT/S)
64 S DAUPHIN ISL 0743   66 70  290/ 29/ 37 1025.1    6/ 5

$$




USA.gov is the U.S. government's official web portal to all federal, state and local government web resources and services.